weather.gov     
National Weather Service

Regional Weather Roundup
NWS Homepage
This page is being discontinued on March 12, 2014.
The same data is available at this site. Please update your bookmarks.
Thank you, and we apologize for the inconvenience.
Please send an email to SR-SRH.Webmaster@noaa.gov with any concerns.


Current Version
Previous Version:    01  02  03  04  05  06  07  08  09  10  11  12  13  14  15  16  17  18  19  20  21  22  
[Printable]
591
ASUS44 KBMX 021710
RWRAL

ALABAMA REGIONAL WEATHER ROUNDUP
NATIONAL WEATHER SERVICE BIRMINGHAM AL
1200 PM CDT TUE SEP 02 2014

NOTE: "FAIR" INDICATES FEW OR NO CLOUDS BELOW 12,000 FEET
WITH NO SIGNIFICANT WEATHER AND/OR OBSTRUCTIONS TO VISIBILITY.

THE REMARK "TC" DENOTES TEMPERATURE IN DEGREES CELSIUS.

ALZ001>011-014-016>018-020-021800-
NORTH ALABAMA

CITY           SKY/WX    TMP DP  RH WIND       PRES   REMARKS
MUSCLE SHOALS  PTSUNNY   91  72  53 S12G18    30.07F HX  98
HUNTSVILLE     PTSUNNY   88  72  58 S6        30.08F HX  94
DECATUR        MOSUNNY   89  71  55 VRB6      30.08F HX  95
HALEYVILLE     LGT RAIN  80  73  79 NW5       30.12F
GADSDEN        PTSUNNY   91  66  43 W8        30.08F HX  94
$$

ALZ012-013-022-023-030>036-040>044-021800-
WEST CENTRAL ALABAMA

CITY           SKY/WX    TMP DP  RH WIND       PRES   REMARKS
TUSCALOOSA     MOSUNNY   88  72  58 VRB3      30.08F HX  94
$$

ALZ015-024>027-033>036-040>044-021800-
CENTRAL ALABAMA

CITY           SKY/WX    TMP DP  RH WIND       PRES   REMARKS
BIRMINGHAM     PTSUNNY   89  68  49 SW9       30.11F HX  93
MONTGOMERY     MOSUNNY   91  71  51 VRB3      30.10S HX  97
SHELBY CO ARPT PTSUNNY   89  70  53 MISG      30.10F HX  94
MAXWELL AFB    MOSUNNY   91  72  54 SW6       30.09F HX  98
GREENVILLE     FAIR      89  70  53 VRB5      30.09F HX  94
$$

ALZ019-021-028-029-037-038-045>048-021800-
EAST CENTRAL ALABAMA

CITY           SKY/WX    TMP DP  RH WIND       PRES   REMARKS
ANNISTON       MOSUNNY   88  70  55 VRB5      30.10F HX  93
ALEXANDER CITY MOSUNNY   91  67  46 SW6       30.12F HX  94
AUBURN         SUNNY     88  66  48 W3        30.16F HX  90
$$

ALZ051>064-021800-
SOUTHWEST ALABAMA

CITY           SKY/WX    TMP DP  RH WIND       PRES   REMARKS
MOBILE         MOSUNNY   90  72  55 VRB3      30.09F HX  97
BROOKLEY FIELD MOSUNNY   90  78  68 SE8       30.09F HX 104
EVERGREEN      MOSUNNY   91  72  53 S9        30.10F HX  98
$$

ALZ049-050-065>069-021800-
SOUTHEAST ALABAMA

CITY           SKY/WX    TMP DP  RH WIND       PRES   REMARKS
DOTHAN         MOSUNNY   92  67  43 S7        30.13F HX  95
OZARK          PTSUNNY   89  70  53 SW5       30.10F HX  94
TROY           MOSUNNY   92  69  47 SW7       30.11F HX  97
EUFAULA        FAIR      91  70  49 CALM      30.09F HX  96
$$




U.S. Dept. of Commerce
NOAA National Weather Service
1325 East West Highway
Silver Spring, MD 20910
E-mail: w-nws.webmaster@noaa.gov
Page last modified: May 16, 2007
NATIONAL WEATHER SERVICE: for Safety, for Work, for Fun - FOR LIFE